Погода в Череповеце

Погода в Череповеце : погода сейчас, прогноз погоды и архив. Всё, что Вы хотите узнать о погоде в Череповеце!

Хотите узнать прогноз погоды в Череповеце? Тогда Вам сюда: Погода в Череповеце

Поиск расширенной информации на нашем сайте:

Другие новости

Новости СМИ2

Главная страница сайта

Новости сайта

03.07.2017

Напоминаем, что на нашем специализированном сайте Метеоцентр.Азия вы можете получить высокодетализированные автоматические прогнозы погоды по пунктам России, СНГ и мира в авиационном формате (включающие направление и скорость ветра, видимость, явления погоды, количество и форму облачности, нижнюю и верхнюю границу облачности).


Погода в Череповеце - сегодня

Время (UTC), дата Ветер
(°,м/с) 
Видим.   Явления Облачность Т
(°С)
Тd
(°С)
f(%) Тe
(°С)
Pmin
(гПа)
dP
(гПа)
Po
(мм)
O2
(г/м3)
Тmin Tmax R s Состояние
почвы
06 15.06.18 220 (ЮЗ) 10 км    9/4 1000 м средняя, верхняя 
[Sc|Ac trans|Ci fib]
+14.2 +6.8 61 +14  1019.1  0.2  754  288           
09 15.06.18 230 (ЮЗ) 10 км    6/3 1000 м средняя, верхняя 
[Cu hum|Ac trans|Ci fib]
+19.1 +9.3 53 +20  1018.4  -0.4  753  282           
12 15.06.18 250 (З) 10 км    9/4 1000 м кучево-дожд., средняя, верхняя 
[Cb calv|Ac trans|Ci fib]
+20.2 +6.8 42 +20  1018.5  0.1  754  282           
18 15.06.18 010 (С) 10 км    8/0 средняя, верхняя 
[Ac trans|Ci fib]
+15.2 +9.4 68 +17  1018.6  -0.1  753  286           
21 15.06.18 тихо ()   10 км  местами туман поземный  8/0 средняя, верхняя 
[Ac trans|Ci fib]
+9.7 +9.1 96 +10  1019.5  0.6  754  292           
06 16.06.18 250 (З) 10 км  слаб. ливневой дождь  10/4 600 м кучево-дожд., средняя 
[Cb calv|Ac trans]
+14.8 +9.6 71 +16  1021.1  0.3  755  287           
09 16.06.18 260 (З) 10 км  {ливн. осадки}  8/4 1000 м средняя 
[Sc|Ac trans]
+21.5 +7.2 40 +22  1020.8  755  281           
18 16.06.18 тихо ()   10 км    9/4 1000 м средняя 
[Sc|Ac trans]
+17.6 +10.7 64 +20  1019.5  -0.1  754  284           
21 16.06.18 тихо ()   10 км    9/0 средняя 
[Ac trans]
+13.1 +11.8 92 +17  1020.1  0.4  755  288           
06 17.06.18 240 (ЮЗ) 10 км    6/1 1000 м средняя, верхняя 
[Sc|Ac trans|Ci fib]
+22.2 +12.6 55 +27  1020.2  -0.4  755  279           
09 17.06.18 210 (ЮЗ) 10 км    6/4 600 м верхняя 
[Cu hum|Ci fib]
+24.8 +8.5 35 +25  1019.7  -0.4  755  277           
12 17.06.18 250 (З) 10 км    6/4 600 м верхняя 
[Cu med, cong|Ci fib]
+25.6 +9.2 35 +26  1018.6  -1  754  276           
18 17.06.18 тихо ()   10 км    4/3 1000 м верхняя 
[Sc diur, vesp|Ci fib]
+19.8 +12.7 64 +25  1017.9  -0.1  753  280           
21 17.06.18 тихо ()   10 км  местами туман поземный  4/3 1000 м верхняя 
[Sc|Ci fib]
+12.9 +12.2 96 +17  1018.4  0.2  753  287           
06 18.06.18 200 (Ю) 10 км    1/0 верхняя 
[Ci fib]
+23.3 +11.6 48 +27  1016.8  -0.8  752  277           
09 18.06.18 230 (ЮЗ) 10 км    4/4 1000 м 
[Cu med, cong]
+25 +12.6 46 +30  1015.8  -0.8  752  275           
12 18.06.18 220 (ЮЗ) 10 км    4/3 1000 м верхняя 
[Cu med, cong|Ci fib]
+26.7 +10.6 36 +29  1014.5  -1.3  751  274           
18 18.06.18 160 (Ю) 10 км    4/0 средняя, верхняя 
[Ac trans|Ci fib]
+21.6 +13.7 61 +28  1012.5  -0.8  749  277           
21 18.06.18 тихо ()   10 км    4/0 средняя, верхняя 
[Ac trans|Ci fib]
+14.6 +13.7 94 +21  1012.4  -0.4  749  284           
00 19.06.18 тихо ()   10 км    9/3 1000 м средняя, верхняя 
[Sc|Ac trans|Ci fib]
+14.9 +13.7 93 +21  1011.4  -1  748  283           
03 19.06.18 тихо ()   10 км  в посл. час ливневой дождь  8/4 1000 м кучево-дожд., средняя, верхняя 
[Cb calv|Ac trans|Ci fib]
+17.2 +14.1 82 +24  1010.5  -0.7  748  280  +13.5    0.0    сухая 
06 19.06.18 220 (ЮЗ) 10 км  {ливн. осадки}  8/3 600 м средняя, верхняя 
[Cu med, cong|Ac trans|Ci fib]
+21.6 +15 66 +30  1009.7  -0.7  747  276           
18 19.06.18 260 (З) 10 км  {гроза, ливн. осадки}  9/4 600 м средняя 
[Sc|Ac trans]
+17 +12.1 73 +22  1003.6  -1.8  742  279           
21 19.06.18 210 (ЮЗ) 10 км  слаб. ливневой дождь  10/4 600 м кучево-дожд., средняя 
[Cb calv|Ac trans]
+16.5 +11.9 74 +21  1000.8  -2.8  740  279           
03 20.06.18 250 (З) 7-10{11}  10 км    8/8 400 м кучево-дожд. 
[Cb calv]
+11.8 +9 83 +10  1001.6  0.3  741  284  +11.2      влажная 
Время (UTC), дата Ветер
(°,м/с) 
Видим.   Явления Облачность Т
(°С)
Тd
(°С)
f(%) Тe
(°С)
Pmin
(гПа)
dP
(гПа)
Po
(мм)
O2
(г/м3)
Тmin Tmax R s Состояние
почвы

Для получения пояснительной информации подведите курсор к названию столбца.

ПОГОДА в Череповеце - архив

Всё, что Вы хотите узнать о погоде в Череповеце - удобно и подробно!

Выберите нужную дату (начиная с 1 января 2015* года) и нажмите кнопку "Найти".
Будут отображены архивные сводки погоды по пункту Череповец, начиная с указанной даты.


Отображать данные в формате CSV (для использования в таблицах Excel)


Внимание! Наш архив погоды предназначен исключительно для личного некоммерческого использования в познавательных целях. Если Вам необходимы официальные справки о состоянии погоды (для производственных, юридических, коммерческих и т.п. целей), обращайтесь в органы Росгидромета.

*Примечание: данная дата относится к архиву по метеостанциям СССР (Россия, СНГ, Балтия).
Архив по метеостанциям Зарубежной Европы и Азии (кроме Китая) хранится 10 дней, по другим регионам земного шара (Китай, Африка, Америка, Австралия, Океания) - 1 день.

Череповец - район местоположения метеостанции


Название, широта, долгота, высота метеостанции:
Череповец 59.2°ш. 38°д. 114 м над ур. моря [Российская Федерация]

Дополнительная информация

В oтличие oт бoльшинства пoгoдных сайтoв мы публикуем пoдрoбную метеoинфoрмацию в детальнoм прoфессиoнальнoм фoрмате.

Характеристики температуры и влажнoсти вoздуха измеряются на высoте 2 м в тени вдали oт зданий и деревьев.
Скoрoсть ветра измеряется на высoте 10 м (на урoвне рoста челoвека скoрoсть ветра ниже в 1.5-2 раза). Если метеoстанция нахoдится в гoрoде или в лесу, тo скoрoсть ветра занижена на 2-4 м/с пo сравнению с oткрытым местoм. Скoрoсть ветра над акватoриями крупных рек и oзёр, а также на вершинах хoлмoв на 2-5 м/с выше, чем в oбычных услoвиях.
Атмoсфернoе давление в разных тoчках местнoсти мoжет значительнo oтличаться oт давления на метеoстанции, в зависимoсти oт услoвий рельефа (при пoдъёме на 10 м давление пoнижается примернo на 1 мм рт.ст.).